{"data":{"norad_id":56472,"intl_designator":"2023-064AA","name":"STARLINK-5038","alt_names":[],"object_type":"PAYLOAD","status":"ACTIVE","operator":null,"country":"US","launch_date":"2023-05-10","launch_site_code":"AFWTR","launch_vehicle":null,"mission":null,"orbit_class":"UNKNOWN","rcs_meters":null,"size_class":null,"mass_kg":null,"dimensions":null,"purposes":["comms"],"wikipedia_slug":null,"has_3d_model":false,"image_url":null,"decayed_at":null,"tle_current":{"epoch":"2026-05-24T19:59:29.409792Z","epoch_age_seconds":89206,"freshness":"FRESH","line1":"1 56472U 23064AA  26144.83297928  .00000205  00000+0  25001-4 0  9992","line2":"2 56472  70.0000 292.5177 0002720 271.7721  88.3126 14.98326263167145","mean_motion":14.98326263,"eccentricity":0.000272,"inclination_deg":70,"raan_deg":292.5177,"arg_perigee_deg":271.7721,"mean_anomaly_deg":88.3126,"bstar":2.5001e-5,"rev_number":16714,"period_min":96.107238827729,"perigee_km":570.17699172299,"apogee_km":573.95790294234,"semimajor_km":6950.2044473327,"source":"CELESTRAK","updated_at":"2026-05-25T13:38:18.071485Z"}}}